Regional Weather Roundup
Issued by NWS

Home | Current Version | Previous Version | Graphics & Text | Print | Product List | Glossary On
Versions: 1 2 3 4 5 6 7 8 9 10 11 12 13 14 15 16 17 18 19 20 21 22 23 24 25 26 27 28 29 30 31 32 33 34 35 36 37 38 39 40 41 42 43 44 45 46 47 48 49 50
000
ASUS43 KIND 300009
RWRIN

WEATHER ROUNDUP FOR INDIANA
NATIONAL WEATHER SERVICE INDIANAPOLIS IN
700 PM EST THU JAN 29 2015

NOTE: "FAIR" INDICATES FEW OR NO CLOUDS BELOW 12,000 FEET WITH NO
SIGNIFICANT WEATHER AND/OR OBSTRUCTIONS TO VISIBILITY.

* - STATION DOES NOT REPORT WEATHER SUCH AS PRECIPITATION OR FOG.

+ - STATION NOT QUALITY CONTROLLED BY THE NATIONAL WEATHER SERVICE.
    USE DATA WITH CAUTION...ESPECIALLY DEWPOINT AND RELATIVE
    HUMIDITY OBSERVATIONS.

INZ001>003-010>013-019-020-300100-
NORTHWEST INDIANA

CITY           SKY/WX    TMP DP  RH WIND       PRES   REMARKS
GARY /AIRPORT/ CLOUDY    37  23  56 NW10G25   30.15R
KNOX *+        CLOUDY    32  21  64 NW14      30.11R WCI  22
LA PORTE +     CLOUDY    35  29  79 N15       30.11R WCI  25
6HR MIN TEMP:  34; 6HR MAX TEMP:  35;

MICHIGAN CITY+ CLOUDY    34  23  64 NW12G25   30.12R WCI  25
MONTICELLO +   CLOUDY    32  30  90 W8        30.13R WCI  25
6HR MIN TEMP:  32; 6HR MAX TEMP:  34;

RENSSELAER +   CLOUDY    34  32  93 W10       30.15R WCI  26
VALPARAISO     CLOUDY    34  25  69 NW12G20   30.13R WCI  25
6HR MIN TEMP:  32; 6HR MAX TEMP:  34;


$$

LMZ046-743>745-300100-
SOUTHERN LAKE MICHIGAN

STATION/POSITION TIME  TEMP WIND        PRES
                       AIR  DIR/SP/G
                 (UTC) (F)  (DEG/KT/KT) (MB)
MICHIGAN CITY    0000   34  290/ 17/ 19   N/A

$$

INZ004-005-014>016-021>024-300100-
NORTH CENTRAL INDIANA

CITY           SKY/WX    TMP DP  RH WIND       PRES   REMARKS
ELKHART        CLOUDY    32  27  80 NW8       30.07R WCI  25
GOSHEN         CLOUDY    33  29  85 NW16G25   30.05R WCI  23
6HR MIN TEMP:  33; 6HR MAX TEMP:  35; 6HR PCP: TRACE;

LOGANSPORT +   CLOUDY    32  30  93 W9        30.12R WCI  24
PERU/GRISSOM   FRZ DRZL  32  30  92 W10       30.09R FOG     WCI  23
6HR MIN TEMP:  32; 6HR MAX TEMP:  34; 6HR PCP: TRACE;

ROCHESTER +    MIX PCPN  34  34 100 NW10      30.10R WCI  26
SOUTH BEND     CLOUDY    34  27  75 NW14      30.08R WCI  25
6HR MIN TEMP:  33; 6HR MAX TEMP:  35; 6HR PCP: TRACE;

WARSAW +       DRIZZLE   32  32 100 NW13G20   30.06R WCI  22

$$

INZ006>009-017-018-025>027-300100-
NORTHEAST INDIANA

CITY           SKY/WX    TMP DP  RH WIND       PRES   REMARKS
ANGOLA *+      CLOUDY    30  28  93 NW12      29.99R WCI  21
AUBURN +       CLOUDY    32  28  86 NW13      30.03R WCI  22
FORT WAYNE     DRIZZLE   33  30  88 NW9       30.05R FOG     WCI  25
6HR MIN TEMP:  32; 6HR MAX TEMP:  38; 6HR PCP:  0.01;

HUNTINGTON +   CLOUDY    32  28  86 NW10G16   30.06R FOG     WCI  24
6HR MIN TEMP:  32; 6HR MAX TEMP:  36;


$$

INZ028-029-035-036-043>045-051>053-300100-
WEST CENTRAL INDIANA

CITY           SKY/WX    TMP DP  RH WIND       PRES   REMARKS
CRAWFORDSVL +  CLOUDY    31  26  83 NW10G17   30.15R WCI  22
6HR MIN TEMP:  31; 6HR MAX TEMP:  32;

GREENCASTLE +  CLOUDY    32  28  86 NW8       30.16R FOG     WCI  25
LAFAYETTE      CLOUDY    33  29  85 NW8       30.15R WCI  26
6HR MIN TEMP:  32; 6HR MAX TEMP:  35;

TERRE HAUTE    CLOUDY    34  31  88 NW9       30.20R WCI  27
6HR MIN TEMP:  34; 6HR MAX TEMP:  37;


$$

INZ030>032-037>040-046>048-054>057-064-065-300100-
CENTRAL INDIANA

CITY           SKY/WX    TMP DP  RH WIND       PRES   REMARKS
CP ATTERBURY + CLOUDY    34  30  86 NW15G21   30.14R WCI  24
COLUMBUS       CLOUDY    32  28  86 NW17      30.14R WCI  21
GREENWOOD *+   CLOUDY    34  27  75 NW12G22   30.13R WCI  25
INDIANAPOLIS   FLURRIES  31  27  85 NW20      30.13R WCI  19
6HR MIN TEMP:  31; 6HR MAX TEMP:  33; 6HR PCP: TRACE;

-EAGLE CREEK   CLOUDY    32  28  85 NW16      30.13R WCI  21
6HR MIN TEMP:  32; 6HR MAX TEMP:  35;

KOKOMO *+      CLOUDY    32  28  86 NW16      30.10R WCI  21
6HR MIN TEMP:  32; 6HR MAX TEMP:  36;

MARION +       CLOUDY    32  31  96 NW15G23   30.09R FOG     WCI  21
6HR MIN TEMP:  -2; 6HR MAX TEMP:  46;

MT COMFORT *+  CLOUDY    32  32 100 NW16G22   30.12R WCI  21
SHELBYVILLE    CLOUDY    34  29  82 NW18      30.11R WCI  23
6HR MIN TEMP:  34; 6HR MAX TEMP:  39;

ZIONSVILLE +   CLOUDY    32  28  86 NW10      30.12R FOG     WCI  24
6HR MIN TEMP:  32; 6HR MAX TEMP:  35;


$$

INZ033-034-041-042-049-050-058-059-300100-
EAST CENTRAL INDIANA

CITY           SKY/WX    TMP DP  RH WIND       PRES   REMARKS
MUNCIE         CLOUDY    32  29  88 NW17G26   30.07R FOG     WCI  21
6HR MIN TEMP:  32; 6HR MAX TEMP:  37;


$$

INZ060-061-067>069-081>083-085>088-300100-
SOUTHWEST INDIANA

CITY           SKY/WX    TMP DP  RH WIND       PRES   REMARKS
EVANSVILLE     CLOUDY    40  32  73 NW12G18   30.24R
6HR MIN TEMP:  40; 6HR MAX TEMP:  44;

HUNTINGBURG *+ CLOUDY    37  28  70 NW15      30.22R
6HR MIN TEMP:  37; 6HR MAX TEMP:  43;

WASHINGTON +   CLOUDY    35  31  86 NW13G20   30.21R WCI  27
6HR MIN TEMP:  35; 6HR MAX TEMP:  38;


$$

INZ062-063-066-070>080-084-089>092-300100-
SOUTH CENTRAL AND SOUTHEAST INDIANA

CITY           SKY/WX    TMP DP  RH WIND       PRES   REMARKS
BLOOMINGTON    CLOUDY    34  29  82 NW9G18    30.16R WCI  27
6HR MIN TEMP:  34; 6HR MAX TEMP:  37; 6HR PCP: TRACE;

SEYMOUR +      CLOUDY    36  30  80 NW12      30.15R

$$



USA.gov is the U.S. government's official web portal to all federal, state and local government web resources and services.